Location: Lawrence
(38.9720°N, 95.2350°W)
Time: 23:49:08
(UTC-05:00)

JAS-1B - Visible Passes

Search period start: 19 August 2014 00:00
Search period end: 29 August 2014 00:00
Orbit: 911 x 1744 km, 99.1° (Epoch: 19 August)

Date Brightness Start Highest point End Pass type
(mag) Time Alt. Az. Time Alt. Az. Time Alt. Az.
19 Aug 7.6 03:38:03 10° NNE 03:45:38 61° E 03:47:34 45° SSE visible
19 Aug 8.6 05:29:33 10° N 05:35:26 24° WNW 05:39:49 13° WSW visible
20 Aug 9.6 02:10:40 10° ENE 02:12:34 11° E 02:14:23 10° E visible
20 Aug 7.3 03:57:04 10° NNE 04:04:44 84° ESE 04:06:43 50° S visible
20 Aug 9.0 05:49:21 10° NNW 05:54:03 18° NW 05:58:19 10° W visible
21 Aug 9.2 02:27:40 10° NE 02:32:03 17° E 02:33:36 16° ESE visible
21 Aug 7.3 04:16:12 10° N 04:23:43 72° WNW 04:25:51 46° SW visible
21 Aug 9.1 06:09:40 10° NNW 06:12:36 13° NW 06:15:22 10° WNW visible
22 Aug 8.8 02:45:48 10° NE 02:51:27 24° E 02:52:45 23° ESE visible
22 Aug 7.5 04:35:26 10° N 04:42:38 52° WNW 04:44:59 36° WSW visible
23 Aug 8.3 03:04:20 10° NNE 03:10:47 34° E 03:11:53 32° ESE visible
23 Aug 7.9 04:54:46 10° N 05:01:27 38° WNW 05:04:07 27° WSW visible
24 Aug 7.8 03:23:06 10° NNE 03:30:01 48° E 03:31:01 45° ESE visible
24 Aug 8.4 05:14:15 10° N 05:20:11 28° WNW 05:23:15 19° W visible
25 Aug 7.3 03:42:01 10° NNE 03:49:10 68° ESE 03:50:09 60° SSE visible
25 Aug 8.7 05:33:56 10° NNW 05:38:51 20° NW 05:42:23 13° W visible
26 Aug 9.4 02:13:54 10° ENE 02:16:16 12° E 02:17:02 12° E visible
26 Aug 7.0 04:01:03 10° NNE 04:08:13 87° WNW 04:09:17 65° SSW visible
26 Aug 8.9 05:54:00 10° NNW 05:57:26 14° NW 06:00:39 10° W visible
27 Aug 9.1 02:31:17 10° NE 02:35:42 18° E 02:36:10 18° E visible
27 Aug 7.2 04:20:13 10° N 04:27:10 62° WNW 04:28:25 52° WSW visible
28 Aug 8.6 02:49:32 10° NE 02:55:03 26° E 02:55:18 26° E visible
28 Aug 7.5 04:39:29 10° N 04:46:02 44° WNW 04:47:33 38° W visible
